Location: Vibo Valentia
(38.6670°N, 16.1000°E)
Time: 01:30:08
(UTC+02:00)

STARLINK-1372 - Pass Details

Date: 30 May 2020
Orbit: 548 x 551 km, 53.0° (Epoch: 10 July)

Event Time Altitude Azimuth Distance (km) Brightness Sun altitude
Exits shadow 02:27:44 28° 316° (NW) 1,037 5.1 -25.6°
Maximum altitude 02:28:15 29° 330° (NNW) 1,015 5.2 -25.5°
Drops below altitude 10° 02:31:52 10° 32° (NNE) 1,812 7.3 -25.2°
Sets 02:34:19 0° 43° (NE) 2,706 8.3 -25.0°
